This demonstration page uses our WeatherBlox Daily Observations layout. Learn more.

Left ArrowRight Arrow

Hourly Observations for July 16, 2021

Temp ( °F °C ) Dew Point ( °F °C ) Humidity (%) Winds ( mph kmh ) Pressure ( in mb ) Visibility ( mi km ) Precip ( " mm )
12:16 am 00:16 Cloudy with Mist and Fog 68 20 66 19 94 94 ENE 5 7 29.95 1014 5 8 0.00 0.00
12:53 am 00:53 Cloudy with Mist and Fog 68 20 66 19 94 94 E 6 9 29.94 1014 4 6 0.00 0.00
12:56 am 00:56 Cloudy with Mist and Fog 68 20 67 19.4 96 96 E 5 7 29.97 1015 4 6 0.00 0.00
1:10 am 01:10 Cloudy with Mist and Fog 68 20 66 19 94 94 E 5 7 29.94 1014 4 6 0.00 0.00
1:19 am 01:19 Cloudy with Mist and Fog 68 20 66 19 94 94 ESE 5 7 29.94 1014 4 6 0.00 0.00
1:26 am 01:26 Cloudy with Mist and Fog 68 20 66 19 94 94 E 6 9 29.94 1014 4 6 0.00 0.00
1:52 am 01:52 Cloudy with Mist and Fog 68 20 66 19 94 94 E 6 9 29.94 1014 4 6 0.00 0.00
1:56 am 01:56 Cloudy with Mist and Fog 68 20 67 19.4 96 96 ESE 5 7 29.96 1015 4 6 0.00 0.00
2:38 am 02:38 Cloudy with Mist and Fog 68 20 66 19 94 94 E 3 6 29.94 1014 5 8 0.00 0.00
2:49 am 02:49 Cloudy with Mist and Fog 68 20 66 19 94 94 E 7 11 29.94 1014 5 8 0.00 0.00
2:56 am 02:56 Cloudy with Mist and Fog 68 20 67 19.4 96 96 E 6 9 29.96 1015 5 8 0.00 0.00
3:01 am 03:01 Cloudy with Mist and Fog 68 20 66 19 94 94 E 7 11 29.93 1013 5 8 0.00 0.00
3:17 am 03:17 Cloudy with Mist and Fog 68 20 66 19 94 94 E 6 9 29.94 1014 4 6 0.00 0.00
3:56 am 03:56 Cloudy with Mist and Fog 68 20 67 19.4 96 96 ESE 7 11 29.94 1014 4 6 0.00 0.00
4:56 am 04:56 Cloudy with Mist and Fog 68 20 67 19.4 96 96 ESE 6 9 29.95 1014 3 5 0.00 0.00
5:56 am 05:56 Cloudy with Mist and Fog 68 20 67 19.4 96 96 E 5 7 29.96 1015 5 8 0.00 0.00
6:48 am 06:48 Cloudy with Mist and Fog 68 20 68 20 100 100 ESE 5 7 29.96 1014 4 6 0.00 0.00
6:56 am 06:56 Cloudy with Mist and Fog 68 20 68 20 100 100 ESE 7 11 29.97 1015 5 8 0.00 0.00
7:37 am 07:37 Cloudy with Mist and Fog 68 20 66 19 94 94 SE 7 11 29.96 1014 6 10 0.00 0.00
7:56 am 07:56 Cloudy 68 20 67 19.4 96 96 S 6 9 29.98 1015 9 14 0.00 0.00
8:09 am 08:09 Cloudy 70 21 68 20 94 94 S 7 11 29.95 1014 9 14 0.00 0.00
8:56 am 08:56 Cloudy 70 21.1 67 19.4 90 90 ESE 7 11 29.99 1016 10 16 0.00 0.00
9:13 am 09:13 Cloudy 70 21 66 19 88 88 ESE 6 9 29.96 1015 10 16 0.00 0.00
9:23 am 09:23 Cloudy 70 21 66 19 88 88 ESE 9 15 29.96 1015 9 14 0.00 0.00
9:32 am 09:32 Cloudy 70 21 66 19 88 88 SE 9 15 29.96 1015 10 16 0.00 0.00
9:56 am 09:56 Cloudy 71 21.7 66 18.9 84 84 E 5 7 30.00 1016 10 16 0.00 0.00
10:10 am 10:10 Cloudy 70 21 66 19 88 88 ESE 7 11 29.97 1015 10 16 0.00 0.00
10:56 am 10:56 Cloudy 72 22.2 67 19.4 84 84 SSE 8 13 30.01 1016 10 16 0.00 0.00
11:08 am 11:08 undefined 72 22 66 19 83 83 undefined N/A N/A N/A 0.00 0.00
11:56 am 11:56 Cloudy 73 22.8 67 19.4 81 81 SE 8 13 29.99 1016 10 16 0.00 0.00
12:56 pm 12:56 Cloudy 74 23.3 67 19.4 79 79 SE 8 13 29.99 1016 10 16 0.00 0.00
1:56 pm 13:56 Cloudy 75 23.9 67 19.4 76 76 SE 6 9 29.99 1016 10 16 0.00 0.00
2:46 pm 14:46 Cloudy 75 24 68 20 78 78 Calm 29.94 1014 10 16 0.00 0.00
2:56 pm 14:56 Cloudy 77 25 68 20 74 74 Calm 29.98 1015 10 16 0.00 0.00
3:56 pm 15:56 Sunny 80 26.7 69 20.6 69 69 E 3 6 29.96 1015 10 16 0.00 0.00
4:56 pm 16:56 Partly Cloudy 81 27.2 70 21.1 69 69 ESE 7 11 29.95 1014 10 16 0.00 0.00
5:56 pm 17:56 Mostly Sunny 81 27.2 70 21.1 69 69 E 10 17 29.94 1014 10 16 0.00 0.00
6:56 pm 18:56 Sunny 81 27.2 70 21.1 69 69 ESE 10 17 29.93 1013 10 16 0.00 0.00
7:56 pm 19:56 Sunny 78 25.6 70 21.1 76 76 ESE 8 13 29.93 1014 10 16 0.00 0.00
8:56 pm 20:56 Sunny 74 23.3 70 21.1 88 88 ESE 8 13 29.93 1014 10 16 0.00 0.00
9:56 pm 21:56 Clear 73 22.8 69 20.6 87 87 ESE 10 17 29.96 1015 10 16 0.00 0.00
10:56 pm 22:56 Clear 72 22.2 69 20.6 91 91 SE 8 13 29.99 1016 9 14 0.00 0.00
11:56 pm 23:56 Clear 71 21.7 69 20.6 94 94 SE 10 17 29.98 1015 9 14 0.00 0.00

Powered by AerisWeather